Big Piney, WY

7:38 PM MDT on April 21, 2018 (GMT -0600)
Big Piney-Marbleton

Weather History for KBPI - May, 2013

Change the Weather History Date:

Monday, May 20, 2013

  Actual Average Record
Temperature  
Mean Temperature 51 °F 47 °F  
Max Temperature 63 °F 63 °F 78 °F (2006)
Min Temperature 38 °F 31 °F 18 °F (1977)
Degree Days  
Heating Degree Days 14 18  
Month to date heating degree days 345 417  
Since 1 July heating degree days 9252 9948  
Cooling Degree Days 0 0  
Month to date cooling degree days 0 0  
Year to date cooling degree days 0 0  
Moisture  
Dew Point 34 °F    
Average Humidity 61    
Maximum Humidity 92    
Minimum Humidity 30    
Precipitation  
Precipitation T in 0.03 in 0.32 in (2016)
Month to date precipitation 0.79 0.53  
Year to date precipitation 1.23 2.16  
Sea Level Pressure  
Sea Level Pressure 29.99 in    
Wind  
Wind Speed 12 mph (North)    
Max Wind Speed 21 mph    
Max Gust Speed 33 mph    
Visibility 10 miles    
Events Rain    
T = Trace of Precipitation, MM = Missing Value Source: NWS Daily Summary

Daily Weather History Graph

Daily Weather History Graph

Search for Another Location

Airport or City:

Astronomy

May. 20, 2013 Rise Set
Actual Time 5:53 AM MDT 8:41 PM MDT
Civil Twilight 5:20 AM MDT 9:14 PM MDT
Nautical Twilight 4:38 AM MDT 9:55 PM MDT
Astronomical Twilight 3:51 AM MDT 10:44 PM MDT
Moon 3:46 PM MDT (5/20) 2:56 AM MDT (5/20)
Length of Visible Light 15h 53m
Length of Day
14h 47m
Waxing Gibbous, 75% of the Moon is Illuminated
May 20
Waxing Gibbous
May 24
Full
May 31
Last Quarter
Jun 8
New
Jun 16
First Quarter

Hourly Weather History & Observations

Time (MDT) Temp. Windchill Dew Point Humidity Pressure Visibility Wind Dir Wind Speed Gust Speed Precip Events Conditions
12:53 AM 43.0 °F 36.4 °F 34.0 °F 71% 29.89 in 10.0 mi NNW 12.7 mph - N/A   Overcast
1:53 AM 42.8 °F 35.4 °F 35.6 °F 76% 30.05 in 10.0 mi North 15.0 mph - N/A   Overcast
2:53 AM 42.1 °F 37.7 °F 36.0 °F 79% 29.91 in 10.0 mi North 6.9 mph - 0.00 in Rain Light Rain
3:53 AM 41.0 °F 38.0 °F 37.0 °F 86% 29.91 in 10.0 mi NNW 4.6 mph - 0.00 in   Overcast
4:53 AM 39.2 °F 37.0 °F 37.4 °F 93% 30.08 in 10.0 mi NNE 3.5 mph - N/A   Overcast
5:53 AM 39.2 °F 35.0 °F 33.8 °F 81% 30.09 in 10.0 mi North 5.8 mph - N/A   Mostly Cloudy
6:53 AM 39.9 °F 33.9 °F 35.1 °F 83% 29.98 in 10.0 mi NNE 9.2 mph - N/A   Overcast
7:53 AM 43.0 °F 37.2 °F 35.1 °F 74% 30.00 in 10.0 mi NNE 10.4 mph - N/A   Overcast
8:53 AM 46.9 °F - 35.1 °F 63% 29.99 in 10.0 mi NNE 9.2 mph - N/A   Overcast
9:53 AM 52.0 °F - 34.0 °F 50% 29.97 in 10.0 mi NNE 11.5 mph 19.6 mph N/A   Scattered Clouds
10:53 AM 55.0 °F - 33.1 °F 43% 29.96 in 10.0 mi North 9.2 mph 21.9 mph N/A   Overcast
11:53 AM 55.0 °F - 30.9 °F 40% 29.96 in 10.0 mi North 12.7 mph - N/A   Overcast
12:53 PM 60.1 °F - 33.1 °F 36% 29.93 in 10.0 mi North 16.1 mph 25.3 mph N/A   Mostly Cloudy
1:53 PM 59.0 °F - 28.9 °F 32% 29.94 in 10.0 mi North 19.6 mph 28.8 mph N/A   Mostly Cloudy
2:53 PM 60.1 °F - 30.0 °F 32% 29.94 in 10.0 mi NNE 18.4 mph 25.3 mph N/A   Scattered Clouds
3:53 PM 62.1 °F - 30.0 °F 30% 29.93 in 10.0 mi NNE 12.7 mph - N/A   Overcast
4:53 PM 59.0 °F - 33.1 °F 38% 29.93 in 10.0 mi North 13.8 mph - 0.00 in   Mostly Cloudy
5:53 PM 55.9 °F - 35.1 °F 45% 29.95 in 10.0 mi NNW 17.3 mph 26.5 mph N/A   Scattered Clouds
7:17 PM 53.6 °F - 33.8 °F 47% 30.13 in 10.0 mi NNW 20.7 mph 26.5 mph N/A   Overcast
7:53 PM 50.0 °F - 35.6 °F 58% 30.12 in 10.0 mi NNW 9.2 mph - N/A   Mostly Cloudy
8:16 PM 51.8 °F - 33.8 °F 50% 30.14 in 10.0 mi ENE 23.0 mph 33.4 mph N/A   Overcast
8:53 PM 48.9 °F - 35.1 °F 59% 29.98 in 10.0 mi NNW 9.2 mph - N/A   Overcast
9:53 PM 48.0 °F - 36.0 °F 63% 29.99 in 10.0 mi NNW 6.9 mph - N/A   Overcast
10:53 PM 43.0 °F - 34.0 °F 71% 30.01 in 10.0 mi Calm Calm - N/A   Partly Cloudy
11:53 PM 41.0 °F 36.4 °F 35.1 °F 79% 30.01 in 10.0 mi NE 6.9 mph - N/A   Clear